Regional Weather Roundup
Issued by NWS Upton, NY

Current Version | Previous Version | Text Only | Print | Product List | Glossary On
Versions: 1 2 3 4 5 6 7 8 9 10 11 12 13 14 15 16 17 18 19 20 21 22 23 24 25 26 27 28 29 30 31 32 33 34 35 36 37 38 39 40 41 42 43 44 45 46 47 48 49 50
000 ASUS41 KOKX 290807 RWROKX REGIONAL WEATHER ROUNDUP NATIONAL WEATHER SERVICE NEW YORK NY 400 AM EDT SUN MAR 29 2015 NOTE: "FAIR" INDICATES FEW OR NO CLOUDS BELOW 12,000 FEET WITH NO SIGNIFICANT WEATHER AND/OR OBSTRUCTIONS TO VISIBILITY. NYZ071-072-176-178-NJZ106-104-290900- NEW YORK CITY METRO AREA CITY SKY/WX TMP DP RH WIND PRES REMARKS CENTRAL PARK CLOUDY 26 6 42 NW8 30.17R WCI 18 LAGUARDIA APRT CLOUDY 27 10 49 NW13 30.15R WCI 16 KENNEDY INTL MOCLDY 28 9 44 NW15G22 30.16R WCI 16 NEWARK/LIBERTY CLOUDY 27 6 41 NW15 30.17R WCI 15 BRNX BOT. GARD N/A N/A N/A N/A N8 30.16R TETERBORO CLOUDY 27 8 44 NW10 30.16R WCI 17 $$ NYZ177-179-078>081-290900- LONG ISLAND NEW YORK CITY SKY/WX TMP DP RH WIND PRES REMARKS FARMINGDALE MOCLDY 26 12 55 N9G21 30.13R WCI 17 ISLIP CLOUDY 26 16 65 N13 30.09R WCI 15 SHIRLEY MIX PCPN 26 21 81 N13 30.11R WCI 15 WESTHAMPTON CLOUDY 27 22 81 N12 30.10R WCI 17 MONTAUK POINT N/A 28 17 63 N14G25 30.09R WCI 17 $$ NYZ052-065-067-290900- HUDSON VALLEY CITY SKY/WX TMP DP RH WIND PRES REMARKS WHITE PLAINS MOCLDY 24 9 52 NW17 30.11R WCI 11 NEWBURGH PTCLDY 23 9 54 CALM 30.15R MONTGOMERY CLEAR 22 3 44 NW8 30.14R WCI 12 POUGHKEEPSIE PTCLDY 25 4 40 NW3 30.16R ALBANY CLEAR 13 5 70 CALM 30.17R $$ NJZ001-105-106-008-010-013-015-019>022-104-290900- NEW JERSEY CITY SKY/WX TMP DP RH WIND PRES REMARKS NEWARK/LIBERTY CLOUDY 27 6 41 NW15 30.17R WCI 15 TETERBORO CLOUDY 27 8 44 NW10 30.16R WCI 17 CALDWELL CLOUDY 25 2 37 VRB6 30.17R WCI 18 MORRISTOWN CLOUDY 28 3 34 NW8 30.17R WCI 20 SOMERVILLE CLOUDY 27 2 34 N9 30.16S WCI 18 SUSSEX CLEAR 22 4 46 VRB7 30.15S WCI 13 ANDOVER N/A 22 5 48 VRB6 30.15S WCI 14 TRENTON CLOUDY 26 5 40 N13 30.17R WCI 15 MILLVILLE CLOUDY 26 7 44 NW10 30.20S WCI 16 ATLANTIC CITY CLOUDY 26 7 44 NW17 30.18R WCI 13 WRIGHTSTOWN CLOUDY 25 6 43 NW10 30.15S WCI 15 TOMS RIVER CLEAR 25 7 46 NW8 30.16S WCI 16 BELMAR CLOUDY 27 7 43 NW16 30.14S WCI 14 $$ PAZ047>061-062-071-290900- EASTERN PENNSYLVANIA CITY SKY/WX TMP DP RH WIND PRES REMARKS PHILADELPHIA MOCLDY 27 5 39 NW13 30.22R WCI 16 ALLENTOWN PTCLDY 23 6 48 NW7 30.20R WCI 15 SCRANTON MOCLDY 20 5 52 CALM 30.17S $$ CTZ002-004>006-009-010-012-RIZ004-006-007-MAZ004-011-015-290900- SOUTHERN NEW ENGLAND IN CT CITY SKY/WX TMP DP RH WIND PRES REMARKS BRADLEY INTL CLOUDY 26 8 46 N8 30.10S WCI 18 HARTFORD CLOUDY 27 9 46 N9 30.12R WCI 18 DANBURY CLOUDY 23 5 46 N9 30.13R WCI 13 WTRBRY/OXFORD CLOUDY 23 7 50 NW15 30.08S WCI 10 BRIDGEPORT CLOUDY 27 15 61 NW10 30.12R WCI 17 MERIDEN CLOUDY 27 15 61 NW12 30.11R WCI 17 NEW HAVEN CLOUDY 28 16 60 N8 30.10R WCI 20 CHESTER CLOUDY 27 14 59 N9G16 30.07R WCI 17 GROTON CLOUDY 26 15 63 N14 30.07S WCI 14 WILLIMANTIC MOCLDY 24 8 50 N7 30.10R WCI 16 IN RI CITY SKY/WX TMP DP RH WIND PRES REMARKS PROVIDENCE CLOUDY 26 15 63 N9 30.08S WCI 17 BLOCK ISLAND CLOUDY 27 21 80 N15 30.05R WCI 15 WESTERLY CLOUDY 25 17 72 N10 30.08R WCI 15 IN MA CITY SKY/WX TMP DP RH WIND PRES REMARKS BOSTON CLOUDY 27 7 42 NW14 30.08S WCI 16 WORCESTER CLOUDY 21 5 50 N8 30.03R WCI 11 WESTFIELD PTCLDY 23 7 50 N3 30.11R PROVINCETOWN PTCLDY 30 19 64 NW16 30.06R WCI 19 NANTUCKET FLURRIES 32 27 81 N17 30.02S WCI 21 $$ ANZ330-335-338-340-345-350-353-355-290900- COASTAL MARINE OBSERVATIONS STATION/POSITION TIME SKY/WX TEMP WIND PRES VSBY WAVE AIR SEA DIR/SP/G HT/PER (UTC) (F) (DEG/KT/KT) (MB) (MI) (FT/S) NY HARB ENTRANCE 0750 29 38 330/ 17/ 23 1020.0 3/11 4S FIRE IS 0703 37 N/A 4/11 20S FIRE ISLAND 0650 38 1019.7 5/ 5 23SW MTP 0750 N/A 6/ 5 HUDSON CANYON NOT AVBL EXECUTION ROCKS NOT AVBL WESTERN LI SOUND NOT AVBL CENTRAL LI SOUND NOT AVBL EASTERN LI SOUND NOT AVBL ROBBINS REEF NOT AVBL $$ >>>>>>>>>>>>>>>>>>>>>>>>>>>> KEY <<<<<<<<<<<<<<<<<<<<<<<<<<< > < > SKY/WX - SKY CONDITION/PRESENT WEATHER < > TMP - TEMPERATURE IN FAHRENHEIT < > DP - DEWPOINT IN FAHRENHEIT < > RH - RELATIVE HUMIDITY IN PERCENT < > WIND - DIRECTION AND SPEED IN MPH < > PRES - MEAN SEA LEVEL PRESSURE IN INCHES OF HG < > WCI - WIND CHILL INDEX < > VSB - VISIBILITY IN MILES < > HX - HEAT INDEX < > TC - TEMPERATURE IN CELSIUS < > VRB - VARIABLE WIND DIRECTION < > < >>>>>>>>>>>>>>>>>>>>>>>>>>>> KEY <<<<<<<<<<<<<<<<<<<<<<<<<<<

USA.gov is the U.S. government's official web portal to all federal, state and local government web resources and services.